Вернуться в каталог

SL-14 R/B

АктивенPO
NORAD 11087·ROCKET BODY·🇷🇺 Russia

Запущен Oct 26, 1978 с Plesetsk Cosmodrome

Loading…

Ближайшие Пролёты (ближайшие 24 часа)

TLE

СвежийSource: Space-Track

Эпоха: Sep 14, 2026, 17:32 UTC

1 11087U 78100D   26257.73063087  .00000052  00000-0  56080-3 0  9998
2 11087  82.5553 345.8017 0010290 124.8759  44.3627 11.97035363 92479

Отслеживайте SL-14 R/B в реальном времени с AllMySat

Download on the App Store